Weather Roundup
Issued by NWS

Home | Current Version | Previous Version | Graphics & Text | Print | Product List | Glossary Off
Versions: 1 2 3 4 5 6 7 8 9 10 11 12 13 14 15 16 17 18 19 20 21 22 23 24 25 26 27 28 29 30 31 32 33 34 35 36 37 38 39 40 41 42 43 44 45 46 47 48 49 50

000
NZUS93 KARX 210659
HRRWXR

CURRENT HOURLY OBSERVATIONS ACROSS
MUCH OF THE UPPER MISSISSIPPI VALLEY
NATIONAL WEATHER SERVICE LA CROSSE WI
200 AM CDT SUN SEP 21 2014


...SOUTHEAST MINNESOTA...


CITY           SKY/WX    TMP DP  RH WIND       PRES   REMARKS
ROCHESTER      CLEAR     55  51  86 W15       29.87S
ROCHESTER/MAYO FAIR      56  51  83 W13G24    29.86R
WINONA         CLEAR     59  50  72 W16G24    29.80S
AUSTIN         CLEAR     55  52  88 W10       29.89S
ALBERT LEA     CLEAR     57  52  82 W8        29.91S
DODGE CENTER   PTCLDY    55  54  94 W14       29.88S
PRESTON        CLEAR     55  54  98 W16       29.87S
OWATONNA       CLEAR     55  52  88 W10       29.90S
FARIBAULT      PTCLDY    59  52  77 W12G17    29.89S
$$

...ELSEWHERE IN MINNESOTA...


CITY           SKY/WX    TMP DP  RH WIND       PRES   REMARKS
MINNEAPOLIS    PTCLDY    55  50  83 NW12      29.87R
INTNL FALLS    LGT RAIN  49  48  97 NW9       29.90R
DULUTH         CLOUDY    52  49  89 NW10      29.79R
RED WING       CLEAR     57  52  82 NW14      29.82R
REDWOOD FALLS  CLEAR     56  47  71 NW12      29.96R
MANKATO        MOCLDY    55  46  71 W12G17    29.92S
WORTHINGTON    CLEAR     55  43  62 W14       30.02R
FAIRMONT       CLEAR     59  43  55 W12       29.95S
$$

...SOUTHWEST WISCONSIN...


CITY           SKY/WX    TMP DP  RH WIND       PRES   REMARKS
LA CROSSE      CLEAR     61  50  67 NW10      29.79F
PRAIRIE DU CHI CLEAR     56  52  85 W3        29.85S
BOSCOBEL       CLEAR     59  52  77 SW5       29.82F
LONE ROCK      NOT AVBL
PLATTEVILLE    CLEAR     57  54  90 W10       29.85R
FORT MC COY    CLEAR     54  52  94 SW3       29.78F
VIROQUA        FAIR      55  53  95 W12G17    29.80F
WIS DELLS      FAIR      55  50  83 W10       29.77R
$$

...ELSEWHERE IN WISCONSIN...


CITY           SKY/WX    TMP DP  RH WIND       PRES   REMARKS
MILWAUKEE      MOCLDY    63  58  83 W16G24    29.69R
MADISON        CLEAR     58  52  80 NW9G18    29.76S
GREEN BAY      PTCLDY    56  55  97 W9        29.66F
EAU CLAIRE     CLOUDY    56  48  74 W15G23    29.75S
BLACK RVR FLS  FAIR      56  53  90 W8        29.76S
MEDFORD        CLOUDY    53  51  94 W12G20    29.70S
WAUSAU         RAIN      55  53  93 W10       29.67F FOG
WIS RAPIDS     MOCLDY    55  52  89 W10       29.73F
MARSHFIELD     CLOUDY    55  51  86 W17G25    29.71F
RICE LAKE      CLOUDY    51  48  89 NW13G25   29.77R
$$

...NORTHEAST IOWA...


CITY           SKY/WX    TMP DP  RH WIND       PRES   REMARKS
WATERLOO       CLEAR     56  53  90 W10       29.91F
DUBUQUE        CLEAR     55  51  86 NW7       29.87S
DECORAH        PTCLDY    54  52  94 W8G15     29.85F
MASON CITY     CLEAR     55  52  89 W13       29.94S
CHARLES CITY   CLEAR     55  54  94 W12       29.91S
OELWEIN        CLEAR     54  52  94 W8        29.91S
$$

...ELSEWHERE IN IOWA...


CITY           SKY/WX    TMP DP  RH WIND       PRES   REMARKS
DES MOINES     CLEAR     59  51  75 W6        30.00S
IOWA CITY        N/A     59  53  80 NW8       29.95R
FORT DODGE     CLEAR     55  50  82 W5        30.00S
MARSHALLTOWN   CLEAR     54  52  93 W7        29.96S
CEDAR RAPIDS   CLEAR     54  53  97 W8        29.93R
$$

...NORTHERN ILLINOIS...


CITY           SKY/WX    TMP DP  RH WIND       PRES   REMARKS
CHICAGO-OHARE  MOCLDY    65  62  90 W10       29.72R
DUPAGE           N/A     64  60  87 W10       29.74R
CHICAGO-MIDWAY MOCLDY    67  62  84 W13       29.72R
MOLINE         CLEAR     62  53  72 NW17G23   29.90R
ROCKFORD       PTCLDY    62  57  83 W14       29.81R
STERLING       PTCLDY    63  55  77 NW17      29.84R
PEORIA         CLEAR     71  64  78 W8        29.85R
$$

NOTE: "FAIR" INDICATES FEW OR NO CLOUDS BELOW 12,000 FEET WITH NO
SIGNIFICANT WEATHER AND/OR OBSTRUCTIONS TO VISIBILITY. WIND
SPEEDS ARE IN MILES-PER-HOUR.



USA.gov is the U.S. government's official web portal to all federal, state and local government web resources and services.